Regional Weather Roundup
Issued by NWS

Home | Current Version | Previous Version | Text Only | Print | Product List | Glossary On
Versions: 1 2 3 4 5 6 7 8 9 10 11 12 13 14 15 16 17 18 19 20 21 22 23 24 25 26 27 28 29 30 31 32 33 34 35 36 37 38 39 40 41 42 43 44 45 46 47 48 49 50
000
ASUS43 KLSX 170407
RWRMO

WEATHER SUMMARY FOR MISSOURI
NATIONAL WEATHER SERVICE SPRINGFIELD MO
1100 PM CDT MON OCT 16 2017

NOTE: "FAIR" INDICATES FEW OR NO CLOUDS BELOW 12,000 FEET WITH NO
       SIGNIFICANT WEATHER AND/OR OBSTRUCTIONS TO VISIBILITY.
       CURRENT SKY AND/OR WEATHER CONDITIONS ARE NOT AVAILABLE FOR
       CHILLICOTHE AND FARMINGTON.

MOZ001>031-035>038-043-044-053-054-170500-
...NORTHERN AND WESTERN MISSOURI...

CITY           SKY/WX    TMP DP  RH WIND       PRES   REMARKS
KANSAS CTY INT CLEAR     49  42  77 S10       30.24S
KANSAS C DTWN  CLEAR     55  42  61 SW7       30.24F
LEE`S SUMMIT   CLEAR     55  42  61 S12       30.27S
ST JOSEPH      CLEAR     54  43  66 S7        30.21F
CHILLICOTHE      N/A     52  42  69 S6        30.25S
KIRKSVILLE     CLEAR     51  41  68 S7        30.25S

$$
MOZ066>068-077>081-088>096-101>105-170500-
...SOUTHWEST MISSOURI...

CITY           SKY/WX    TMP DP  RH WIND       PRES   REMARKS
SPRINGFIELD    CLEAR     47  41  80 S3        30.30R
JOPLIN         CLEAR     46  45  96 E3        30.30S
BRANSON        CLEAR     54  34  47 CALM      30.31F

$$
MOZ032>034-039>042-045>050-055>058-069>072-170500-
...CENTRAL MISSOURI...

CITY           SKY/WX    TMP DP  RH WIND       PRES   REMARKS
COLUMBIA       CLEAR     50  41  71 S7        30.29S
JEFFERSON CITY CLEAR     47  42  83 E3        30.29S
ROLLA          CLEAR     47  38  71 S8        30.31S
SEDALIA        CLEAR     52  44  74 SW6       30.30R
WHITEMAN AFB   CLEAR     49  41  76 S6        30.24S
WARRENSBURG    CLEAR     50  41  71 S6        30.28S
OSAGE BEACH    CLEAR     46  43  89 CALM      30.31S

$$
MOZ051-052-059>065-170500-
...EAST CENTRAL MISSOURI...

CITY           SKY/WX    TMP DP  RH WIND       PRES   REMARKS
ST LOUIS INTL  CLEAR     52  41  66 S6        30.31S
SPIRIT OF STL  CLEAR     44  43  96 CALM      30.31R
ST CHARLES     CLEAR     46  43  89 CALM      30.30S

$$
MOZ072>076-082>087-097>100-106>115-170500-
...SOUTH CENTRAL AND SOUTHEAST MISSOURI...

CITY           SKY/WX    TMP DP  RH WIND       PRES   REMARKS
CAPE GIRARDEAU CLEAR     43  40  89 E3        30.32F
FARMINGTON     CLEAR     43  40  89 CALM      30.34R
POPLAR BLUFF   CLEAR     43  41  93 CALM      30.32S
WEST PLAINS    CLEAR     43  39  86 CALM      30.33S

$$



USA.gov is the U.S. government's official web portal to all federal, state and local government web resources and services.